Location: Palo Alto
(37.4420°N, 122.1420°W)
Time: 09:40:46
(UTC-07:00)

ISS - All Passes

Search period start: 18 April 2015 00:00
Search period end: 28 April 2015 00:00
Orbit: 396 x 403 km, 51.6° (Epoch: 18 April)

Date Brightness Start Highest point End Pass type
(mag) Time Alt. Az. Time Alt. Az. Time Alt. Az.
18 Apr - 14:58:17 10° SW 15:01:32 72° SE 15:04:47 10° NE daylight
18 Apr - 16:36:03 10° WNW 16:38:14 16° NNW 16:40:23 10° NNE daylight
18 Apr - 21:27:30 10° NW 21:30:34 37° NE 21:33:38 10° ESE visible
18 Apr - 23:04:22 10° W 23:06:46 19° SW 23:09:06 10° S visible
19 Apr - 14:04:48 10° SSW 14:07:43 31° SE 14:10:41 10° ENE daylight
19 Apr - 15:41:19 10° W 15:44:07 25° NNW 15:46:54 10° NNE daylight
19 Apr - 20:33:55 10° NNW 20:36:30 22° NNE 20:39:07 10° E visible
19 Apr - 22:09:55 10° WNW 22:13:00 40° SW 22:16:02 10° SSE visible
20 Apr - 13:12:01 10° SSE 13:13:56 15° SE 13:15:56 10° E daylight
20 Apr - 14:46:54 10° WSW 14:50:03 46° NW 14:53:13 10° NE daylight
20 Apr - 16:26:11 10° NNW 16:27:06 11° NNW 16:27:57 10° N daylight
20 Apr - 19:40:26 10° NNW 19:42:18 14° NNE 19:44:13 10° ENE daylight
20 Apr - 21:15:50 10° NW 21:19:05 88° NNE 21:22:20 10° SE visible
21 Apr - 13:52:47 10° SW 13:56:02 82° SE 13:59:18 10° NE daylight
21 Apr - 15:30:44 10° WNW 15:32:47 15° NNW 15:34:47 10° NNE daylight
21 Apr - 18:47:28 10° N 18:47:58 10° NNE 18:48:31 10° NNE daylight
21 Apr - 20:21:56 10° NW 20:25:04 41° NE 20:28:09 10° ESE visible
21 Apr - 21:59:00 10° W 22:01:12 17° SW 22:03:19 10° S visible
22 Apr - 12:59:04 10° SSW 13:02:03 35° SE 13:05:06 10° ENE daylight
22 Apr - 14:35:47 10° W 14:38:30 23° NNW 14:41:11 10° NNE daylight
22 Apr - 19:28:10 10° NNW 19:30:51 23° NNE 19:33:33 10° E daylight
22 Apr - 21:04:16 10° WNW 21:07:16 35° SW 21:10:16 10° SSE visible
23 Apr - 12:05:57 10° S 12:08:06 17° SE 12:10:20 10° E daylight
23 Apr - 13:41:09 10° WSW 13:44:15 41° NW 13:47:22 10° NE daylight
23 Apr - 15:20:49 10° NNW 15:21:20 10° NNW 15:21:48 10° N daylight
23 Apr - 18:34:31 10° NNW 18:36:30 15° NNE 18:38:33 10° ENE daylight
23 Apr - 20:10:00 10° NW 20:13:15 81° SW 20:16:28 10° SE daylight
24 Apr - 12:46:50 10° SW 12:50:05 88° NNW 12:53:20 10° NE daylight
24 Apr - 14:24:57 10° WNW 14:26:51 14° NNW 14:28:43 10° NNE daylight
24 Apr - 17:41:13 10° N 17:42:02 11° NNE 17:42:55 10° NNE daylight
24 Apr - 19:15:55 10° NW 19:19:04 46° NE 19:22:12 10° ESE daylight
24 Apr - 20:53:11 10° W 20:55:10 15° SW 20:57:02 10° SSW visible
25 Apr - 11:52:53 10° SSW 11:55:56 40° SE 11:59:01 10° ENE daylight
25 Apr - 13:29:47 10° W 13:32:24 22° NNW 13:35:00 10° NNE daylight
25 Apr - 18:21:58 10° NNW 18:24:43 25° NNE 18:27:30 10° E daylight
25 Apr - 19:58:10 10° WNW 20:01:06 31° SW 20:04:00 10° SSE daylight
26 Apr - 10:59:30 10° S 11:01:50 19° SE 11:04:13 10° E daylight
26 Apr - 12:34:57 10° WSW 12:38:00 37° NW 12:41:03 10° NE daylight
26 Apr - 17:28:08 10° NNW 17:30:15 16° NNE 17:32:24 10° ENE daylight
26 Apr - 19:03:41 10° NW 19:06:55 72° SW 19:10:09 10° SE daylight
27 Apr - 11:40:25 10° SW 11:43:39 79° NW 11:46:54 10° NE daylight
27 Apr - 13:18:42 10° NW 13:20:28 14° NNW 13:22:11 10° N daylight
27 Apr - 16:34:35 10° N 16:35:38 11° NNE 16:36:44 10° NE daylight
27 Apr - 18:09:26 10° NW 18:12:37 51° NE 18:15:46 10° ESE daylight
27 Apr - 19:46:56 10° W 19:48:40 13° SW 19:50:17 10° SSW daylight
